Simultaneous Nadir Overpasses (SNOs) Predictions

Prediction of SNOs between NOAA-19 and TERRA Satellite Orbit:

Table of predicted SNOs for the next 14.0 days since TLE Epoch: 5/5/2017
Index Date (NOAA-19) Time (NOAA-19) Lat,Lon (NOAA-19) SZA (NOAA-19 ) Date (TERRA) Time (TERRA) Lat,Lon (TERRA) SZA (TERRA ) Distance(km) Time Diff (sec)
1 05/06/2017 04:45:50 75.31, 119.36 58.98 05/06/2017 04:45:59 75.33, 119.33 59.00 2.03 9
2 05/06/2017 05:36:43 -74.80, -71.84 121.43 05/06/2017 05:35:35 -74.90, -74.17 121.50 68.58 68
3 05/08/2017 10:19:44 -75.32,-144.08 121.62 05/08/2017 10:19:44 -75.32,-144.12 121.62 1.06 0
4 05/10/2017 15:02:45 -75.83, 143.54 121.78 05/10/2017 15:03:53 -75.72, 145.96 121.74 67.02 68
5 05/10/2017 15:53:31 75.35, -47.55 57.82 05/10/2017 15:53:26 75.35, -47.46 57.83 2.37 5
6 05/12/2017 20:36:28 75.70,-119.37 57.56 05/12/2017 20:37:38 75.59,-117.85 57.55 43.66 70
7 05/12/2017 21:27:25 -75.33, 49.09 122.75 05/12/2017 21:27:11 -75.33, 49.03 122.77 1.76 14
8 05/15/2017 02:10:16 -75.41, -21.80 123.22 05/15/2017 02:11:26 -75.41, -21.81 123.20 0.45 70
9 05/15/2017 03:01:11 75.35, 145.65 56.73 05/15/2017 03:00:53 75.33, 145.61 56.70 2.72 18
10 05/17/2017 07:44:01 75.39, 74.87 56.26 05/17/2017 07:45:08 75.40, 74.73 56.27 4.01 67
11 05/17/2017 08:35:06 -75.37,-117.82 123.77 05/17/2017 08:34:37 -75.33,-117.82 123.81 4.01 29




NCC Satellite Simultaneous Nadir Overpasses (SNOs) Prediction Service
